Tracking 25689 objects as of 7-Jul-2022
HD Live streaming from Space Station
objects crossing your sky now

FENGYUN 1C DEB

Track FENGYUN 1C DEB now!
10-day predictions


NORAD ID: 33724
Int'l Code: 1999-025DHM
Perigee: 825.0 km
Apogee: 866.6 km
Inclination: 98.7 °
Period: 101.7 minutes
Semi major axis: 7216 km
RCS: 0.0006 m2 (small)
Launch date: May 10, 1999
Source: People's Republic of China (PRC)
Launch site: Taiyaun Space Center, China (TSC)

Note: This is SATELLITE DEBRIS
aabbcc
Your satellite tracking list
Your tracking list is empty




NASA's NSSDC Master Catalog

Two Line Element Set (TLE):
1 33724U 99025DHM 22187.31782674  .00000374  00000-0  21010-3 0  9993
2 33724  98.6870 215.9791 0028829 189.8521 232.8922 14.16075135761742
Source of the keplerian elements: AFSPC